De Queen, AR

12:45 AM CDT on March 30, 2020 (GMT -0500)
Helms Sevier County

Weather History for KDEQ - October, 2019

Change the Weather History Date:

Sunday, October 20, 2019

  Actual Average Record
Temperature  
Mean Temperature 69 °F -  
Max Temperature 84 °F - 90 °F (1969)
Min Temperature 54 °F - 27 °F (1989)
Cooling Degree Days 4    
Growing Degree Days 19 (Base 50)    
Moisture  
Dew Point 59 °F    
Average Humidity 85    
Maximum Humidity 97    
Minimum Humidity 44    
Precipitation  
Precipitation 0.85 in - 3.11 in (1993)
Sea Level Pressure  
Sea Level Pressure 29.76 in    
Wind  
Wind Speed 1 mph ()    
Max Wind Speed 32 mph    
Max Gust Speed 46 mph    
Visibility 4.0 miles    
Events Fog , Rain , Thunderstorm    
T = Trace of Precipitation, MM = Missing Value Source: Averaged Metar Reports

Daily Weather History Graph

Daily Weather History Graph

Search for Another Location

Airport or City:

Astronomy

Oct. 20, 2019 Rise Set
Actual Time 7:26 AM CDT 6:37 PM CDT
Civil Twilight 7:01 AM CDT 7:02 PM CDT
Nautical Twilight 6:32 AM CDT 7:32 PM CDT
Astronomical Twilight 6:03 AM CDT 8:01 PM CDT
Moon 11:57 PM CDT (10/20) 1:44 PM CDT (10/20)
Length of Visible Light 12h 01m
Length of Day
11h 11m
Waning Gibbous, 59% of the Moon is Illuminated
Oct 20
Waning Gibbous
Oct 21
Last Quarter
Oct 27
New
Nov 4
First Quarter
Nov 12
Full

Hourly Weather History & Observations

Time (CDT) Temp. Heat Index Dew Point Humidity Pressure Visibility Wind Dir Wind Speed Gust Speed Precip Events Conditions
12:53 AM 63.0 °F - 61.0 °F 93% 29.77 in 6.0 mi Calm Calm - N/A   Mostly Cloudy
1:18 AM 63.0 °F - 61.0 °F 93% 29.77 in 1.5 mi Calm Calm - N/A   Mostly Cloudy
1:27 AM 62.1 °F - 60.1 °F 93% 29.77 in 0.5 mi Calm Calm - N/A Fog Fog
1:37 AM 63.0 °F - 61.0 °F 93% 29.77 in 2.0 mi Calm Calm - N/A   Mostly Cloudy
1:45 AM 63.0 °F - 61.0 °F 93% 29.78 in 4.0 mi Calm Calm - N/A   Mostly Cloudy
1:53 AM 62.1 °F - 60.1 °F 93% 29.77 in 6.0 mi Calm Calm - N/A   Scattered Clouds
2:08 AM 62.1 °F - 59.0 °F 90% 29.78 in 2.5 mi Calm Calm - N/A   Partly Cloudy
2:15 AM 62.1 °F - 60.1 °F 93% 29.78 in 6.0 mi Calm Calm - N/A   Clear
2:24 AM 60.1 °F - 57.9 °F 93% 29.77 in 1.8 mi Calm Calm - N/A   Clear
2:27 AM 60.1 °F - 57.0 °F 90% 29.77 in 0.8 mi Calm Calm - N/A   Mist
2:37 AM 59.0 °F - 57.9 °F 96% 29.77 in 0.2 mi Calm Calm - N/A Fog Fog
2:53 AM 60.1 °F - 59.0 °F 96% 29.76 in 0.2 mi Calm Calm - N/A Fog Fog
3:01 AM 60.1 °F - 57.9 °F 93% 29.77 in 1.0 mi Calm Calm - N/A   Mist
3:10 AM 60.1 °F - 57.9 °F 93% 29.77 in 5.0 mi Calm Calm - N/A   Partly Cloudy
3:19 AM 57.9 °F - 55.9 °F 93% 29.77 in 1.8 mi Calm Calm - N/A   Clear
3:29 AM 57.9 °F - 57.0 °F 97% 29.77 in 0.2 mi Calm Calm - N/A Fog Fog
3:36 AM 57.9 °F - 57.0 °F 97% 29.77 in 0.2 mi Calm Calm - N/A Fog Fog
3:53 AM 59.0 °F - 57.0 °F 93% 29.75 in 0.2 mi Calm Calm - N/A Fog Fog
4:03 AM 59.0 °F - 57.0 °F 93% 29.76 in 1.2 mi Calm Calm - N/A   Partly Cloudy
4:05 AM 57.9 °F - 57.0 °F 97% 29.76 in 3.0 mi Calm Calm - N/A   Partly Cloudy
4:12 AM 55.9 °F - 55.0 °F 97% 29.76 in 1.8 mi Calm Calm - N/A   Partly Cloudy
4:14 AM 57.0 °F - 55.0 °F 93% 29.77 in 0.8 mi Calm Calm - N/A   Mist
4:23 AM 57.0 °F - 55.9 °F 96% 29.77 in 0.2 mi Calm Calm - N/A Fog Fog
4:49 AM 57.2 °F - 55.4 °F 94% 29.77 in 0.2 mi Calm Calm - N/A Fog Fog
4:53 AM 57.0 °F - 55.0 °F 93% 29.76 in 0.2 mi Calm Calm - N/A Fog Fog
5:00 AM 57.0 °F - 55.0 °F 93% 29.77 in 1.0 mi Calm Calm - N/A   Mist
5:02 AM 57.9 °F - 55.9 °F 93% 29.77 in 3.0 mi Calm Calm - N/A   Scattered Clouds
5:16 AM 57.0 °F - 55.0 °F 93% 29.78 in 1.2 mi Calm Calm - N/A   Partly Cloudy
5:18 AM 55.9 °F - 55.0 °F 97% 29.78 in 0.8 mi Calm Calm - N/A   Mist
5:29 AM 55.9 °F - 54.0 °F 93% 29.78 in 0.2 mi Calm Calm - N/A Fog Fog
5:53 AM 55.9 °F - 54.0 °F 93% 29.78 in 0.2 mi Calm Calm - N/A Fog Fog
6:04 AM 55.0 °F - 54.0 °F 96% 29.78 in 1.0 mi Calm Calm - N/A   Mist
6:06 AM 55.0 °F - 54.0 °F 96% 29.78 in 2.0 mi Calm Calm - N/A   Scattered Clouds
6:17 AM 55.0 °F - 54.0 °F 96% 29.79 in 1.0 mi Calm Calm - N/A   Mist
6:23 AM 55.0 °F - 54.0 °F 96% 29.79 in 0.5 mi Calm Calm - N/A Fog Fog
6:30 AM 55.0 °F - 53.1 °F 93% 29.79 in 0.2 mi Calm Calm - N/A Fog Fog
6:53 AM 54.0 °F - 52.0 °F 93% 29.78 in 0.2 mi Calm Calm - N/A Fog Fog
7:53 AM 54.0 °F - 53.1 °F 97% 29.78 in 0.2 mi Calm Calm - N/A Fog Fog
8:43 AM 57.9 °F - 57.0 °F 97% 29.80 in 0.2 mi Calm Calm - N/A Fog Fog
8:50 AM 59.0 °F - 57.2 °F 94% 29.81 in 0.8 mi Calm Calm - N/A   Clear
8:53 AM 60.1 °F - 57.9 °F 93% 29.80 in 0.8 mi Calm Calm - N/A   Clear
9:08 AM 61.0 °F - 59.0 °F 93% 29.81 in 1.2 mi Calm Calm - N/A   Clear
9:18 AM 63.0 °F - 60.1 °F 90% 29.81 in 3.0 mi Calm Calm - N/A   Clear
9:36 AM 64.0 °F - 61.0 °F 90% 29.82 in 7.0 mi Calm Calm - N/A   Mostly Cloudy
9:53 AM 66.9 °F - 61.0 °F 81% 29.81 in 9.0 mi Calm Calm - N/A   Mostly Cloudy
10:22 AM 70.0 °F - 62.1 °F 76% 29.82 in 10.0 mi East 3.5 mph - N/A   Scattered Clouds
10:30 AM 70.0 °F - 62.1 °F 76% 29.82 in 10.0 mi ENE 3.5 mph - N/A   Mostly Cloudy
10:53 AM 71.1 °F - 62.1 °F 73% 29.80 in 10.0 mi Calm Calm - N/A   Overcast
11:43 AM 75.9 °F - 64.9 °F 69% 29.80 in 10.0 mi Calm Calm - N/A   Scattered Clouds
11:50 AM 75.2 °F - 64.4 °F 69% 29.80 in 10.0 mi SSE 5.8 mph - N/A   Mostly Cloudy
11:53 AM 75.0 °F - 64.9 °F 71% 29.79 in 10.0 mi SE 4.6 mph - N/A   Mostly Cloudy
12:53 PM 78.1 °F - 66.0 °F 66% 29.77 in 9.0 mi Variable 3.5 mph - N/A   Mostly Cloudy
1:04 PM 79.0 °F - 64.0 °F 60% 29.77 in 10.0 mi SSW 5.8 mph - N/A   Partly Cloudy
1:53 PM 81.0 °F 82.7 °F 64.9 °F 58% 29.73 in 10.0 mi SSE 5.8 mph - N/A   Clear
2:53 PM 82.9 °F 84.0 °F 63.0 °F 51% 29.70 in 10.0 mi Calm Calm - N/A   Clear
3:53 PM 84.0 °F 84.0 °F 60.1 °F 44% 29.68 in 10.0 mi SSW 5.8 mph - N/A   Clear
4:53 PM 84.0 °F 84.0 °F 60.1 °F 44% 29.67 in 10.0 mi SSE 6.9 mph - N/A   Clear
5:53 PM 82.0 °F 83.1 °F 63.0 °F 52% 29.67 in 10.0 mi SSE 8.1 mph - N/A   Clear
6:53 PM 75.0 °F - 63.0 °F 66% 29.67 in 10.0 mi ESE 4.6 mph - N/A   Clear
7:53 PM 71.1 °F - 63.0 °F 75% 29.67 in 10.0 mi Calm Calm - N/A   Mostly Cloudy
8:53 PM 69.1 °F - 63.0 °F 81% 29.68 in 10.0 mi Calm Calm - N/A   Clear
9:53 PM 72.0 °F - 63.0 °F 73% 29.62 in 10.0 mi East 6.9 mph - N/A   Clear
10:53 PM 75.0 °F - 64.9 °F 71% 29.62 in 10.0 mi SE 8.1 mph - N/A Thunderstorm Partly Cloudy
11:01 PM 75.9 °F - 66.9 °F 74% 29.64 in 2.5 mi SSE 9.2 mph - N/A Thunderstorm Unknown
11:15 PM 73.9 °F - 68.0 °F 82% 29.65 in 4.0 mi WSW 9.2 mph 19.6 mph 0.05 in Rain , Thunderstorm Heavy Thunderstorms and Rain
11:37 PM 70.0 °F - 66.0 °F 87% 29.67 in 1.8 mi NW 17.3 mph 24.2 mph 0.18 in Rain , Thunderstorm Heavy Thunderstorms and Rain
11:49 PM 66.2 °F - 62.6 °F 88% 29.69 in 0.8 mi WNW 32.2 mph 46.0 mph 0.54 in Rain , Thunderstorm Heavy Thunderstorms and Rain
11:53 PM 66.0 °F - 62.1 °F 87% 29.72 in 0.5 mi WNW 24.2 mph 46.0 mph 0.85 in Fog , Rain , Thunderstorm Heavy Thunderstorms and Rain